• In Deutschland
  • Länderverzeichnis
  • Für 7 Tage
  • Wassertemperatur
  • Satellitenkarten
  • Wetterkarte
  • Widgets
  • user-avatar
    Anmelden

    Stündliche Wetter Żagań

    Heute, 18 Juni, Montag

    Zeit Temperatur Niederschläge Wind Luftdruck Luftfeuchtigkeit
    00:00 +17°C° 0 mm 2 m/S 752 mmHg 86%
    01:00 +17°C° 0 mm 2 m/S 752 mmHg 87%
    02:00 +16°C° 0 mm 2 m/S 752 mmHg 87%
    03:00 +16°C° 0 mm 2 m/S 753 mmHg 88%
    04:00 +15°C° 0 mm 2 m/S 753 mmHg 88%
    05:00 +16°C° 0 mm 2 m/S 753 mmHg 84%
    06:00 +17°C° 0 mm 2 m/S 753 mmHg 79%
    07:00 +19°C° 0 mm 2 m/S 754 mmHg 74%
    08:00 +20°C° 0 mm 3 m/S 754 mmHg 66%
    09:00 +22°C° 0 mm 3 m/S 754 mmHg 57%
    10:00 +25°C° 0 mm 3 m/S 754 mmHg 49%
    11:00 +25°C° 0 mm 3 m/S 754 mmHg 48%
    12:00 +25°C° 0 mm 3 m/S 754 mmHg 48%
    13:00 +25°C° 0 mm 3 m/S 754 mmHg 47%
    14:00 +25°C° 0 mm 3 m/S 754 mmHg 47%
    15:00 +25°C° 0 mm 3 m/S 754 mmHg 48%
    16:00 +25°C° 0 mm 3 m/S 754 mmHg 48%
    17:00 +24°C° 0 mm 3 m/S 754 mmHg 51%
    18:00 +23°C° 0 mm 2 m/S 754 mmHg 55%
    19:00 +23°C° 0 mm 2 m/S 754 mmHg 58%
    20:00 +20°C° 0 mm 2 m/S 754 mmHg 62%
    21:00 +20°C° 0 mm 1 m/S 754 mmHg 67%
    22:00 +18°C° 0 mm 1 m/S 755 mmHg 72%
    23:00 +17°C° 0 mm 2 m/S 755 mmHg 76%

    Morgen, 19 Juni, Dienstag

    Zeit Temperatur Niederschläge Wind Luftdruck Luftfeuchtigkeit
    00:00 +16°C° 0 mm 2 m/S 755 mmHg 80%
    01:00 +16°C° 0 mm 2 m/S 755 mmHg 84%
    02:00 +16°C° 0 mm 2 m/S 755 mmHg 87%
    03:00 +15°C° 0 mm 2 m/S 755 mmHg 90%
    04:00 +15°C° 0 mm 2 m/S 755 mmHg 93%
    05:00 +17°C° 0 mm 2 m/S 755 mmHg 87%
    06:00 +18°C° 0 mm 2 m/S 756 mmHg 80%
    07:00 +20°C° 0 mm 3 m/S 756 mmHg 74%
    08:00 +21°C° 0 mm 3 m/S 756 mmHg 68%
    09:00 +22°C° 0 mm 3 m/S 756 mmHg 63%
    10:00 +25°C° 0 mm 3 m/S 756 mmHg 58%
    11:00 +25°C° 0 mm 3 m/S 756 mmHg 55%
    12:00 +26°C° 0 mm 4 m/S 756 mmHg 52%
    13:00 +27°C° 0 mm 4 m/S 756 mmHg 49%
    14:00 +27°C° 0 mm 4 m/S 755 mmHg 47%
    15:00 +27°C° 0 mm 3 m/S 755 mmHg 46%
    16:00 +28°C° 0 mm 3 m/S 755 mmHg 45%
    17:00 +27°C° 0 mm 3 m/S 755 mmHg 49%
    18:00 +26°C° 0 mm 2 m/S 755 mmHg 53%
    19:00 +25°C° 0 mm 2 m/S 755 mmHg 58%
    20:00 +24°C° 0 mm 2 m/S 756 mmHg 64%
    21:00 +22°C° 0 mm 1 m/S 756 mmHg 70%
    22:00 +20°C° 0 mm 1 m/S 756 mmHg 77%
    23:00 +20°C° 0 mm 1 m/S 757 mmHg 81%

    übermorgen, 20 Juni, Mittwoch

    Zeit Temperatur Niederschläge Wind Luftdruck Luftfeuchtigkeit
    00:00 +19°C° 0 mm 1 m/S 757 mmHg 86%
    01:00 +18°C° 0 mm 1 m/S 757 mmHg 90%
    02:00 +16°C° 0 mm 0 m/S 757 mmHg 91%
    03:00 +16°C° 0 mm 0 m/S 757 mmHg 93%
    04:00 +15°C° 0 mm 0 m/S 757 mmHg 94%
    05:00 +17°C° 0 mm 0 m/S 757 mmHg 86%
    06:00 +19°C° 0 mm 0 m/S 757 mmHg 79%
    07:00 +21°C° 0 mm 0 m/S 757 mmHg 71%
    08:00 +23°C° 0,1 mm 0 m/S 757 mmHg 65%
    09:00 +25°C° 0,1 mm 0 m/S 757 mmHg 59%
    10:00 +27°C° 0,1 mm 0 m/S 757 mmHg 53%
    11:00 +27°C° 0,1 mm 0 m/S 757 mmHg 52%
    12:00 +29°C° 0,1 mm 1 m/S 756 mmHg 51%
    13:00 +29°C° 0,1 mm 1 m/S 756 mmHg 50%
    14:00 +29°C° 0 mm 1 m/S 756 mmHg 50%
    15:00 +29°C° 0 mm 1 m/S 755 mmHg 49%
    16:00 +29°C° 0 mm 1 m/S 755 mmHg 49%
    17:00 +28°C° 0 mm 1 m/S 755 mmHg 53%
    18:00 +27°C° 0 mm 1 m/S 754 mmHg 57%
    19:00 +25°C° 0 mm 0 m/S 754 mmHg 61%
    20:00 +25°C° 0 mm 1 m/S 754 mmHg 64%
    21:00 +24°C° 0 mm 1 m/S 754 mmHg 68%
    22:00 +23°C° 0 mm 1 m/S 754 mmHg 72%
    23:00 +22°C° 0 mm 1 m/S 754 mmHg 74%

    21 Juni, Donnerstag

    Zeit Temperatur Niederschläge Wind Luftdruck Luftfeuchtigkeit
    00:00 +21°C° 0 mm 1 m/S 753 mmHg 76%
    01:00 +21°C° 0 mm 1 m/S 753 mmHg 79%
    02:00 +21°C° 0 mm 1 m/S 753 mmHg 80%
    03:00 +20°C° 0 mm 1 m/S 752 mmHg 81%
    04:00 +20°C° 0 mm 1 m/S 752 mmHg 82%
    05:00 +22°C° 0 mm 1 m/S 751 mmHg 76%
    06:00 +24°C° 0 mm 2 m/S 751 mmHg 70%
    07:00 +26°C° 0 mm 2 m/S 751 mmHg 63%
    08:00 +27°C° 0 mm 2 m/S 750 mmHg 57%
    09:00 +29°C° 0 mm 2 m/S 750 mmHg 52%
    10:00 +30°C° 0 mm 3 m/S 749 mmHg 46%
    11:00 +31°C° 0,1 mm 3 m/S 748 mmHg 47%
    12:00 +31°C° 0,1 mm 3 m/S 748 mmHg 48%
    13:00 +31°C° 0,1 mm 3 m/S 747 mmHg 49%
    14:00 +30°C° 0,3 mm 4 m/S 746 mmHg 52%
    15:00 +30°C° 0,3 mm 4 m/S 746 mmHg 55%
    16:00 +29°C° 0,3 mm 4 m/S 746 mmHg 58%
    17:00 +27°C° 0,6 mm 4 m/S 746 mmHg 65%
    18:00 +25°C° 0,6 mm 5 m/S 746 mmHg 72%
    19:00 +22°C° 0,6 mm 6 m/S 746 mmHg 79%
    20:00 +20°C° 0,1 mm 6 m/S 747 mmHg 79%
    21:00 +17°C° 0,1 mm 6 m/S 748 mmHg 80%
    22:00 +16°C° 0,1 mm 6 m/S 749 mmHg 80%
    23:00 +14°C° 0 mm 5 m/S 749 mmHg 80%

    22 Juni, Freitag

    Zeit Temperatur Niederschläge Wind Luftdruck Luftfeuchtigkeit
    00:00 +13°C° 0 mm 4 m/S 750 mmHg 79%
    01:00 +12°C° 0 mm 4 m/S 750 mmHg 79%
    02:00 +11°C° 0 mm 4 m/S 750 mmHg 78%
    03:00 +11°C° 0 mm 4 m/S 750 mmHg 77%
    04:00 +10°C° 0 mm 4 m/S 751 mmHg 76%
    05:00 +10°C° 0 mm 5 m/S 751 mmHg 74%
    06:00 +10°C° 0 mm 5 m/S 751 mmHg 72%
    07:00 +12°C° 0 mm 5 m/S 751 mmHg 70%
    08:00 +13°C° 0 mm 6 m/S 751 mmHg 63%
    09:00 +14°C° 0 mm 6 m/S 752 mmHg 56%
    10:00 +15°C° 0 mm 6 m/S 752 mmHg 50%
    11:00 +15°C° 0 mm 6 m/S 752 mmHg 50%
    12:00 +15°C° 0 mm 6 m/S 751 mmHg 49%
    13:00 +15°C° 0 mm 7 m/S 751 mmHg 49%
    14:00 +16°C° 0 mm 7 m/S 751 mmHg 49%
    15:00 +16°C° 0 mm 7 m/S 751 mmHg 49%
    16:00 +17°C° 0 mm 7 m/S 751 mmHg 49%
    17:00 +16°C° 0,1 mm 7 m/S 750 mmHg 52%
    18:00 +15°C° 0,1 mm 6 m/S 750 mmHg 56%
    19:00 +15°C° 0,1 mm 6 m/S 750 mmHg 60%
    20:00 +14°C° 0 mm 6 m/S 751 mmHg 64%
    21:00 +13°C° 0 mm 5 m/S 751 mmHg 69%
    22:00 +12°C° 0 mm 5 m/S 751 mmHg 74%
    23:00 +12°C° 0,1 mm 5 m/S 751 mmHg 77%

    23 Juni, Samstag

    Zeit Temperatur Niederschläge Wind Luftdruck Luftfeuchtigkeit
    00:00 +12°C° 0,1 mm 5 m/S 751 mmHg 81%
    01:00 +10°C° 0,1 mm 5 m/S 751 mmHg 85%
    02:00 +10°C° 0,6 mm 5 m/S 751 mmHg 87%
    03:00 +10°C° 0,6 mm 5 m/S 751 mmHg 89%
    04:00 +9°C° 0,6 mm 5 m/S 751 mmHg 91%
    05:00 +10°C° 0,2 mm 6 m/S 751 mmHg 89%
    06:00 +10°C° 0,2 mm 6 m/S 751 mmHg 87%
    07:00 +10°C° 0,2 mm 6 m/S 752 mmHg 84%
    08:00 +11°C° 0,2 mm 6 m/S 752 mmHg 81%
    09:00 +11°C° 0,2 mm 6 m/S 752 mmHg 77%
    10:00 +13°C° 0,2 mm 6 m/S 752 mmHg 74%
    11:00 +14°C° 0,1 mm 6 m/S 752 mmHg 66%
    12:00 +16°C° 0,1 mm 6 m/S 752 mmHg 59%
    13:00 +17°C° 0,1 mm 6 m/S 752 mmHg 51%
    14:00 +17°C° 0,1 mm 6 m/S 752 mmHg 51%
    15:00 +17°C° 0,1 mm 6 m/S 752 mmHg 51%
    16:00 +19°C° 0,1 mm 6 m/S 752 mmHg 50%
    17:00 +17°C° 0 mm 5 m/S 752 mmHg 53%
    18:00 +16°C° 0 mm 5 m/S 752 mmHg 56%
    19:00 +15°C° 0 mm 4 m/S 753 mmHg 59%
    20:00 +14°C° 0 mm 4 m/S 753 mmHg 64%
    21:00 +12°C° 0 mm 4 m/S 753 mmHg 69%
    22:00 +11°C° 0 mm 3 m/S 754 mmHg 74%
    23:00 +10°C° 0 mm 3 m/S 754 mmHg 77%
    Mehr zeigen